Location: Hodgeman County Ambulance
(38.0844°N, 99.8949°W)
Time: 00:11:08
(UTC+00:00)

Meteor 2-10 Rocket - Pass Details

Date: 27 October 2020
Orbit: 734 x 885 km, 81.2° (Epoch: 04 December)

Event Time Altitude Azimuth Distance (km) Brightness Sun altitude
Rises 12:18:15 0° 351° (N) 3,170 6.5 -9.0°
Reaches altitude 10° 12:20:34 10° 352° (N) 2,247 5.8 -8.6°
Maximum altitude 12:25:36 85° 81° (E) 753 3.6 -7.6°
Drops below altitude 10° 12:30:43 10° 170° (S) 2,282 6.3 -6.6°
Sets 12:33:05 0° 171° (S) 3,223 7.0 -6.1°
